SCP
0 0 0 0 0 0 0 0 0 0 0 0 0 0 0 0 0 0 0 0 0 0 0 0 0 0 0 0 1 1 1 1 0 0 0 0 0 0 0 0 0 0 0 0
0 0 0 0 0 0 0 0 0 0 0 0 0 0 0 0 0 0 0 0 0 0 0 0 0 0 0 0 1 1 1 1 0 0 0 0 0 0 0 0 0 0 0 0
0 0 0 0 0 0 0 0 0 0 0 0 0 0 0 0 0 0 0 0 0 0 0 0 0 0 0 0 1 1 1 1 1 0 0 0 0 0 0 0 0 0 0 0
0 0 0 0 0 0 0 0 0 0 0 0 0 0 0 0 0 0 0 0 0 0 0 0 0 0 0 0 1 1 1 1 1 0 0 0 0 0 0 0 0 0 0 0
0 0 0 0 0 0 0 0 0 0 0 0 0 0 0 0 0 0 0 0 0 0 0 0 0 0 0 0 1 1 1 1 1 0 0 0 0 0 0 0 0 0 0 0
0 0 0 0 0 0 0 0 0 0 0 0 0 0 0 0 0 0 0 0 0 0 0 0 0 0 0 0 1 1 1 1 1 0 0 0 0 0 0 0 0 0 0 0
0 0 0 0 0 0 0 0 0 0 0 -0 0 0 0 0 0 0 0 0 0 0 0 0 0 0 0 0 1 1 1 1 1 0 0 0 0 0 0 0 0 0 0 0
0 0 0 0 0 0 0 0 0 0 0 0 0 0 0 0 0 0 0 0 0 0 0 0 0 0 0 0 0 0 1 1 1 1 0 0 0 0 0 0 0 0 0 0
0 0 0 0 0 0 0 0 0 0 0 0 0 0 0 0 0 0 0 0 0 0 0 0 0 0 0 0 0 0 0 1 1 1 0 0 0 0 0 0 0 0 0 0
0 0 0 0 0 0 0 0 0 0 0 0 0 0 0 0 0 0 0 0 0 0 0 0 0 0 0 0 0 0 0 0 1 1 0 0 0 0 0 0 0 0 0 0
0 0 0 0 0 0 0 0 0 0 0 0 0 0 0 0 0 0 0 0 0 0 0 0 0 0 0 1 1 0 0 0 0 1 1 0 0 0 0 0 0 0 0 0
0 0 0 0 0 0 0 0 0 0 0 0 0 0 0 0 0 0 0 0 0 0 0 0 0 0 0 1 1 1 0 0 0 1 1 0 0 0 0 0 0 0 0 0
0 0 0 0 0 0 0 0 0 0 0 0 0 0 0 0 0 0 0 0 0 0 0 0 0 0 0 1 1 1 0 0 0 0 1 0 0 0 0 0 0 0 0 0
0 0 0 0 0 0 0 0 0 0 0 0 0 0 0 0 0 0 0 0 0 0 0 0 0 0 0 0 1 1 0 0 0 0 0 0 0 0 0 0 0 0 0 0
0 0 0 0 0 0 0 0 0 0 0 0 0 0 0 0 0 0 0 0 0 0 0 0 0 0 0 0 0 0 0 0 0 0 0 0 0 0 0 0 0 0 0 0
0 0 0 0 0 0 0 0 0 0 0 0 0 0 0 0 0 0 0 0 0 0 0 0 0 0 0 0 0 0 0 0 0 0 0 0 0 0 0 0 0 0 0 0
0 0 0 0 0 0 0 0 0 0 0 0 0 0 0 0 0 0 0 0 0 0 0 0 0 0 0 0 0 0 0 0 0 0 0 0 0 0 0 0 0 0 0 0
0 0 0 0 0 0 0 0 0 0 0 0 0 0 0 0 0 0 0 0 0 0 0 0 0 0 0 0 0 0 0 0 0 0 0 0 0 0 0 0 0 0 0 0
0 0 0 0 0 0 0 0 0 0 0 0 0 0 0 0 0 0 0 0 0 0 0 0 0 0 0 0 0 0 0 0 0 0 0 0 0 0 0 0 0 0 0 0
0 0 0 0 0 0 0 0 0 0 0 0 0 0 0 0 0 0 0 0 0 0 0 0 0 0 0 0 0 0 0 0 0 0 0 0 0 0 0 0 0 0 0 0
0 0 0 0 0 0 0 0 0 0 0 0 0 0 0 0 0 0 0 0 0 0 0 0 0 0 0 0 0 0 0 0 0 0 0 0 0 0 0 0 0 0 0 0
0 0 0 0 0 0 0 0 0 0 0 0 0 0 0 0 0 0 0 0 0 0 0 0 0 0 0 0 0 0 0 0 0 0 0 0 0 0 0 0 0 0 0 0
0 0 0 0 0 0 0 0 0 0 0 0 0 0 0 0 0 0 0 0 0 0 0 0 0 0 0 0 0 0 0 0 0 0 0 0 0 0 0 0 0 0 0 0
0 0 0 0 0 0 0 0 0 0 0 0 0 0 0 0 0 0 0 0 0 0 0 0 0 0 0 0 0 0 0 0 0 0 0 0 0 0 0 0 0 0 0 0
0 0 0 0 0 0 0 0 0 0 0 0 0 0 0 0 0 0 0 0 0 0 0 0 0 0 0 0 0 0 0 0 0 0 0 0 0 0 0 0 0 0 0 0
0 0 0 0 0 0 0 0 0 0 0 0 0 0 0 0 0 0 0 0 0 0 0 0 0 0 0 0 0 0 0 0 0 0 0 0 0 0 0 0 0 0 0 0
0 0 0 0 0 0 0 0 0 0 0 0 0 0 0 0 0 0 0 0 0 0 0 0 0 0 0 0 0 0 0 0 0 0 0 0 0 0 0 0 0 0 0 0
Wind_Speed
6 7 6 8 10 10 6 5 4 5 5 6 9 8 9 11 13 15 16 16 14 11 10 8 7 6 5 6 6 6 6 6 6 5 4 4 3 2 1 1 1 0 1 2
3 6 7 5 9 5 7 7 7 8 5 6 6 7 9 11 14 15 15 16 15 15 14 13 11 9 7 7 7 6 7 7 6 6 5 5 4 3 2 1 0 1 2 2
4 6 4 4 5 7 9 9 6 5 4 7 9 11 8 8 12 13 13 13 14 13 13 14 13 11 9 9 7 7 8 7 7 7 7 6 6 4 3 2 2 2 2 3
2 2 1 2 5 11 12 9 8 5 5 7 8 10 4 5 9 11 12 12 12 12 13 14 14 12 11 9 7 8 8 8 8 8 8 7 6 6 5 3 3 3 3 4
4 3 3 4 3 2 2 4 5 4 6 7 9 8 4 4 7 7 8 8 8 9 9 11 13 13 13 11 8 7 8 8 9 9 9 9 8 7 5 4 4 4 4 5
4 4 5 2 8 11 2 3 3 6 8 9 9 7 6 10 12 12 10 8 8 8 8 10 11 12 12 12 9 8 8 8 8 9 10 11 10 8 5 5 5 5 5 5
2 3 1 5 11 9 2 4 7 7 8 8 6 7 10 12 12 10 10 10 9 9 8 8 9 10 11 10 11 11 10 8 7 9 11 11 10 7 6 6 6 6 6 5
2 2 1 6 6 4 3 5 7 9 9 10 11 13 13 13 12 11 11 11 10 8 8 8 8 8 10 10 11 12 11 9 8 8 9 10 10 9 8 8 8 7 6 5
2 1 2 1 1 3 4 7 9 9 12 13 14 15 15 14 13 12 12 11 9 9 10 8 7 7 9 11 10 11 12 10 8 8 9 9 11 11 9 9 8 7 7 7
3 1 2 3 3 4 6 9 11 12 14 14 16 17 16 14 12 11 11 11 10 9 10 10 9 8 9 10 9 9 11 10 7 7 8 9 9 10 10 10 9 9 8 8
3 2 5 5 6 7 9 11 14 14 15 16 16 16 16 14 12 11 10 9 9 9 10 12 10 9 9 8 8 9 10 10 7 6 7 9 10 10 12 11 12 11 10 10
1 4 4 8 9 11 13 15 17 17 17 15 14 15 14 12 10 10 10 10 9 10 11 12 11 10 9 8 7 8 8 8 6 6 6 7 8 7 8 9 15 16 14 12
6 7 7 11 13 15 15 17 17 16 15 15 12 10 10 9 9 9 10 11 11 12 12 12 12 11 10 8 8 8 7 8 7 6 6 7 9 10 7 4 9 14 16 17
8 7 9 11 13 14 15 16 14 12 11 11 10 10 10 10 10 11 12 12 12 12 12 12 12 12 10 8 8 8 7 9 8 7 6 8 10 10 10 10 8 5 8 14
9 8 10 13 12 12 11 10 11 11 11 11 10 10 11 11 11 12 12 13 13 13 13 13 13 13 10 8 8 8 7 6 6 6 6 7 9 10 9 10 9 7 4 4
9 10 11 11 11 11 11 12 12 12 12 12 12 12 12 12 12 12 12 12 13 14 14 13 14 13 11 9 8 7 6 10 9 6 5 7 9 10 10 10 9 9 8 7
8 9 9 11 11 12 12 12 12 13 13 14 14 14 13 11 12 13 13 13 13 14 14 14 14 13 11 9 8 6 5 6 10 7 6 7 9 10 11 10 10 10 9 10
9 10 11 12 13 14 15 14 14 15 15 15 15 14 12 12 13 14 14 14 14 14 13 13 12 11 10 9 7 5 5 5 6 5 5 6 8 10 11 11 11 11 7 9
11 11 12 13 14 14 14 14 15 13 14 14 13 12 12 13 13 14 14 14 15 15 13 11 14 12 10 10 9 5 5 6 6 5 4 7 9 9 10 11 11 10 10 10
11 12 14 14 14 14 14 14 14 13 13 12 12 12 13 13 14 14 15 14 12 11 12 12 11 10 9 9 10 5 5 6 6 5 4 5 7 9 9 10 11 11 10 10
13 14 15 15 15 14 13 13 12 13 13 12 12 13 15 15 14 14 13 13 12 12 12 13 10 8 6 6 7 4 5 5 5 4 4 5 7 8 9 10 11 11 11 10
12 13 14 14 13 13 11 11 11 13 14 13 14 15 15 15 15 14 13 12 12 14 11 8 7 8 8 6 4 4 5 5 4 3 3 4 7 8 9 10 10 10 10 10
12 12 12 12 12 12 13 11 12 12 13 14 16 16 16 14 12 12 13 10 10 13 10 8 9 12 11 5 4 4 5 5 4 3 3 4 6 7 9 10 9 10 10 10
10 10 11 11 11 11 12 13 12 12 14 15 15 16 16 13 12 10 10 14 15 14 9 8 11 12 9 4 4 4 4 4 3 3 2 3 4 6 7 8 8 9 10 11
9 9 9 11 11 10 11 13 14 14 15 14 16 16 13 11 12 12 12 13 14 12 8 8 10 10 5 4 4 4 4 3 3 2 2 2 4 5 5 6 7 8 8 9
9 9 9 9 9 9 10 12 13 13 14 15 15 14 13 12 12 11 10 11 12 10 7 5 5 5 4 4 4 4 4 3 2 2 2 3 4 4 4 5 8 7 7 8
9 8 7 8 8 9 10 12 13 14 14 15 17 16 15 13 12 11 11 9 7 6 4 4 3 3 4 4 3 3 3 2 2 2 2 3 3 3 4 5 5 5 6 7
Wind_Direction
223 244 261 283 299 299 291 255 183 126 87 8 355 3 14 20 19 18 11 5 0 350 337 325 311 286 256 226 211 195 188 194 202 201 194 189 194 205 224 271 279 349 58 55
282 275 288 321 345 13 34 37 83 98 63 348 340 6 20 22 18 11 4 359 355 352 347 337 326 311 285 255 225 200 196 201 198 189 189 191 192 195 200 216 191 111 89 85
267 294 346 21 4 76 67 36 59 63 9 341 350 355 1 15 13 2 354 351 349 346 339 334 323 316 305 279 246 211 205 201 193 189 191 193 190 188 194 187 153 122 103 102
204 350 271 160 93 107 99 66 52 50 2 348 330 310 300 30 7 345 340 339 339 338 336 332 327 321 312 301 263 227 211 204 195 191 192 188 185 189 192 180 170 159 140 128
149 199 231 143 68 348 189 94 28 3 338 329 316 300 261 11 350 326 318 318 318 318 321 325 329 327 324 313 289 249 225 214 202 194 191 187 188 189 184 171 168 161 150 143
155 196 232 269 333 321 137 137 2 346 331 331 342 340 307 330 329 323 319 314 312 313 314 321 324 330 325 321 314 290 261 235 213 198 191 190 190 185 175 167 167 158 153 152
222 234 125 329 321 338 24 304 320 323 318 320 312 275 285 300 302 298 297 297 300 304 306 307 314 324 323 320 315 302 296 269 232 204 196 190 184 177 169 165 161 160 156 157
354 300 302 337 10 47 272 283 297 305 305 300 291 287 289 290 288 289 290 290 290 289 290 293 301 312 312 308 311 310 301 283 248 213 203 192 180 177 171 166 164 162 157 155
90 150 209 289 197 239 260 283 289 290 291 288 286 286 287 287 286 286 285 287 286 282 284 287 286 288 297 299 305 313 304 281 259 228 209 189 180 179 174 171 171 171 168 167
93 113 249 269 269 273 273 274 280 280 282 282 283 285 288 288 287 286 285 285 283 282 283 285 283 276 276 289 298 306 304 289 262 236 215 193 183 180 179 178 177 176 175 174
78 320 314 295 282 276 280 283 285 285 286 286 287 291 292 294 294 292 291 289 285 281 280 280 281 277 274 282 291 296 297 294 271 247 223 197 186 186 184 186 184 179 181 177
273 259 257 271 276 284 291 293 294 295 294 291 289 291 294 294 294 296 299 297 294 290 284 283 282 277 275 273 280 288 291 299 283 257 232 200 183 177 190 181 183 182 179 176
235 249 252 268 280 286 288 288 291 291 290 293 293 291 293 293 293 297 299 299 296 294 291 287 283 278 273 270 268 273 276 289 289 268 235 202 181 174 168 163 178 183 182 181
256 268 278 275 279 286 288 289 291 291 290 289 291 294 295 293 294 297 297 296 294 293 291 288 284 280 273 266 263 269 274 281 284 271 242 208 185 178 175 172 169 174 194 194
280 273 269 279 285 287 288 293 300 300 295 291 286 287 289 291 292 293 294 296 296 293 292 289 286 283 275 263 257 263 269 273 277 272 245 213 184 174 174 176 173 161 143 167
287 290 289 291 294 297 300 300 299 293 291 288 287 284 284 283 286 292 295 298 297 296 293 289 285 284 277 263 253 254 261 277 282 277 251 211 182 173 173 173 170 169 170 161
298 298 299 301 300 299 295 292 290 291 292 291 290 288 287 287 291 295 297 297 293 290 288 284 282 283 277 266 251 249 258 277 279 276 247 206 182 175 174 173 174 176 177 172
280 281 286 290 295 298 298 295 293 294 294 292 294 295 291 291 293 296 299 299 296 292 287 281 280 282 277 270 251 245 256 268 266 266 251 207 183 176 174 174 176 175 164 167
290 287 287 289 290 292 293 295 296 296 296 298 299 296 292 291 293 296 299 299 298 296 293 286 284 283 275 265 256 244 254 267 268 261 245 200 184 175 173 174 175 174 169 165
292 291 291 293 296 296 297 299 301 301 303 303 302 299 297 296 297 300 300 295 288 285 287 288 286 278 271 264 255 241 252 265 268 259 236 192 178 175 175 176 175 173 172 173
298 300 302 306 306 305 304 304 305 305 308 307 304 302 300 299 299 301 300 297 292 287 287 285 280 272 264 257 249 240 248 256 262 258 234 194 176 172 174 176 174 174 175 178
303 306 310 312 312 311 309 306 306 308 311 310 308 305 304 302 302 300 292 288 290 289 289 284 277 268 265 254 235 241 251 252 255 249 227 189 176 170 171 171 172 174 177 179
308 310 311 312 311 311 311 311 311 311 311 311 309 307 304 300 299 298 299 296 293 290 289 280 273 269 265 245 232 243 252 250 252 242 214 185 170 167 168 168 169 171 175 179
311 312 310 311 314 315 315 316 314 311 309 308 305 304 304 303 299 292 290 294 291 287 284 276 272 268 258 232 233 244 245 241 246 248 217 173 160 159 162 163 165 169 175 178
311 312 315 320 321 318 315 316 316 315 314 312 309 307 305 299 298 301 300 299 297 290 282 274 266 261 242 223 229 238 239 230 235 234 203 166 155 155 156 158 162 166 170 176
316 317 315 314 315 315 318 319 318 316 316 314 312 311 310 307 302 301 301 300 296 288 280 270 259 244 222 222 224 222 225 223 227 211 184 158 146 148 152 157 163 164 167 174
319 318 319 320 318 317 317 317 315 315 315 312 313 313 311 311 309 309 308 305 302 293 283 270 255 230 214 213 212 210 213 209 198 177 153 136 136 142 151 157 162 163 164 166